DW9106 Madrid ES current weather conditions

sailwx.info

Wind from 044 at 1 knots gusting 6

Air temperature 29.4° C
Dewpoint 11.0° C

Last reported at 2016-Jul-26 09:47 UTC.
Time now 2016-Jul-26 10:14 UTC

Location: N 40°23' W 003°38'.
View on Google Maps.

See reports from other nearby stations

  
Tides and Currents Weather Stations Pressure Air Temp Water Temp Dewpoint Dewpoint Depression Visibility Wind Speed Wind Dir Waves Ship Positions
date/time (UTC)wind fromknots sea level pressurealtimeterstation pressurevisibilityair tempwater tempwave heightnotes
2016-Jul-26 09:47 044 1 gusting 6 29.4
2016-Jul-26 09:32 090 0 gusting 5 28.9
2016-Jul-26 09:17 053 2 gusting 6 28.3
2016-Jul-26 09:02 071 3 gusting 6 28.3
2016-Jul-26 08:47 057 1 gusting 4 27.8
2016-Jul-26 08:32 056 3 gusting 6 27.2
2016-Jul-26 08:17 071 1 gusting 5 26.7
2016-Jul-26 08:02 051 3 gusting 6 25.6
2016-Jul-26 07:47 059 2 gusting 6 25.6
2016-Jul-26 07:32 077 4 gusting 6 24.4
2016-Jul-26 07:16 064 2 gusting 6 24.4
2016-Jul-26 07:01 086 3 gusting 8 23.9
2016-Jul-26 06:46 044 3 gusting 7 23.9
2016-Jul-26 06:31 077 2 gusting 7 23.3
2016-Jul-26 06:17 062 2 gusting 7 23.3
2016-Jul-26 06:01 045 1 gusting 6 22.8
2016-Jul-26 05:46 022 2 gusting 5 22.8
2016-Jul-26 05:31 038 2 gusting 4 22.2
2016-Jul-26 05:16 052 2 gusting 6 22.2
2016-Jul-26 05:01 028 2 gusting 6 22.2
2016-Jul-26 04:46 062 1 gusting 7 22.8
2016-Jul-26 04:31 051 2 gusting 5 22.8
2016-Jul-26 04:16 053 2 gusting 6 22.8
2016-Jul-26 04:01 072 1 gusting 6 23.3
2016-Jul-26 03:46 050 3 gusting 6 23.3
2016-Jul-26 03:31 052 3 gusting 6 23.9
2016-Jul-26 03:16 035 2 gusting 7 23.9
2016-Jul-26 03:01 046 3 gusting 7 23.9
2016-Jul-26 02:46 063 3 gusting 6 24.4
2016-Jul-26 02:31 055 2 gusting 6 24.4
2016-Jul-26 02:16 044 1 gusting 6 24.4
2016-Jul-26 02:01 059 2 gusting 8 25.0
2016-Jul-26 01:45 057 4 gusting 7 25.0
2016-Jul-26 01:31 047 5 gusting 8 25.0
2016-Jul-26 01:15 056 4 gusting 10 25.6
2016-Jul-26 01:00 034 6 gusting 12 26.1
2016-Jul-26 00:45 038 5 gusting 10 26.1
2016-Jul-26 00:30 036 6 gusting 13 26.1
2016-Jul-26 00:15 055 6 gusting 11 26.1
2016-Jul-26 00:00 024 5 gusting 11 26.7
2016-Jul-25 23:45 063 5 gusting 12 26.7
2016-Jul-25 23:30 036 4 gusting 8 27.2
2016-Jul-25 23:15 080 4 gusting 10 27.2
2016-Jul-25 23:00 027 5 gusting 9 27.8
2016-Jul-25 22:45 071 4 gusting 9 27.8
2016-Jul-25 22:30 028 5 gusting 10 28.3
2016-Jul-25 22:15 022 5 gusting 9 28.9
2016-Jul-25 22:00 032 3 gusting 6 29.4
2016-Jul-25 21:45 055 1 gusting 5 30.0
2016-Jul-25 21:30 048 2 gusting 6 30.0
2016-Jul-25 21:15 030 2 gusting 5 30.0
2016-Jul-25 21:00 063 1 gusting 4 30.6
2016-Jul-25 20:45 044 1 gusting 4 31.1
2016-Jul-25 20:30 059 3 gusting 6 31.7
2016-Jul-25 20:15 040 1 gusting 6 32.2
2016-Jul-25 20:00 061 1 gusting 6 32.8
2016-Jul-25 19:45 049 3 gusting 7 32.8
2016-Jul-25 19:30 063 2 gusting 8 33.3
2016-Jul-25 19:15 062 0 gusting 3 34.4
2016-Jul-25 19:00 033 3 gusting 7 35.0
2016-Jul-25 18:45 279 1 gusting 5 36.1
2016-Jul-25 18:30 268 0 gusting 5 36.1
2016-Jul-25 18:15 163 0 gusting 3 36.7
2016-Jul-25 18:00 246 36.7
2016-Jul-25 17:45 283 2 gusting 7 36.7
2016-Jul-25 17:30 174 36.7
2016-Jul-25 17:15 315 0 gusting 6 36.7
2016-Jul-25 17:00 269 0 gusting 10 36.1
2016-Jul-25 16:45 254 1 gusting 6 36.1
2016-Jul-25 16:30 050 36.1
2016-Jul-25 16:15 282 3 gusting 9 36.7
2016-Jul-25 16:00 051 1 gusting 5 36.7
2016-Jul-25 15:45 207 0 gusting 6 36.1
2016-Jul-25 15:29 122 35.0
2016-Jul-25 15:15 064 1 gusting 5 35.6
2016-Jul-25 14:59 318 1 gusting 3 36.1
2016-Jul-25 14:44 151 0 gusting 6 35.6
2016-Jul-25 14:29 067 35.0
2016-Jul-25 14:14 114 1 gusting 5 35.6
2016-Jul-25 13:59 163 0 gusting 5 35.6
2016-Jul-25 13:44 194 1 gusting 3 35.6
2016-Jul-25 13:29 294 1 gusting 5 34.4
2016-Jul-25 13:14 266 0 gusting 6 33.9
2016-Jul-25 12:59 307 33.3
2016-Jul-25 12:44 104 0 gusting 8 33.9
2016-Jul-25 12:29 188 0 gusting 6 33.9
2016-Jul-25 12:14 166 0 gusting 5 33.3
2016-Jul-25 11:59 201 33.3
2016-Jul-25 11:44 127 32.2
2016-Jul-25 11:29 252 31.7
2016-Jul-25 11:14 119 1 gusting 3 31.1
2016-Jul-25 10:59 149 1 gusting 3 31.1
2016-Jul-25 10:44 346 30.0
2016-Jul-25 10:29 127 29.4
2016-Jul-25 10:14 114 0 gusting 2 30.0
2016-Jul-25 09:59 123 0 gusting 2 28.9
2016-Jul-25 09:43 098 2 gusting 6 27.8
2016-Jul-25 09:28 071 1 gusting 4 27.8
2016-Jul-25 09:13 084 0 gusting 5 27.2
2016-Jul-25 08:58 044 1 gusting 4 27.2
2016-Jul-25 08:43 043 1 gusting 4 26.1
2016-Jul-25 08:28 064 1 gusting 4 25.6
2016-Jul-25 08:13 051 1 gusting 5 24.4
2016-Jul-25 07:58 057 2 gusting 4 24.4
2016-Jul-25 07:43 032 2 gusting 6 23.9
2016-Jul-25 07:28 069 1 gusting 6 23.3
2016-Jul-25 07:13 080 1 gusting 5 22.8
2016-Jul-25 06:58 043 2 gusting 6 22.2
2016-Jul-25 06:43 048 1 gusting 5 22.2
2016-Jul-25 06:28 054 1 gusting 6 21.7
2016-Jul-25 06:12 055 1 gusting 6 21.7
2016-Jul-25 05:57 044 0 gusting 3 21.1
2016-Jul-25 05:42 042 0 gusting 3 21.1
2016-Jul-25 05:27 042 1 gusting 4 21.1
2016-Jul-25 05:12 057 1 gusting 5 21.1
2016-Jul-25 04:57 042 0 gusting 2 21.1
2016-Jul-25 04:42 043 1 gusting 4 21.1
2016-Jul-25 04:27 043 0 gusting 4 21.7
2016-Jul-25 04:12 054 1 gusting 5 21.7
2016-Jul-25 03:57 051 2 gusting 6 21.7
2016-Jul-25 03:42 052 2 gusting 6 21.7
2016-Jul-25 03:27 049 2 gusting 6 22.2
2016-Jul-25 03:12 040 2 gusting 6 22.2
2016-Jul-25 02:57 046 3 gusting 6 22.8
2016-Jul-25 02:42 022 3 gusting 7 22.8
2016-Jul-25 02:27 037 3 gusting 7 22.8
2016-Jul-25 02:12 051 2 gusting 7 23.3
2016-Jul-25 01:57 058 2 gusting 6 23.3
2016-Jul-25 01:42 062 2 gusting 8 23.3
2016-Jul-25 01:27 005 4 gusting 11 23.9
2016-Jul-25 01:12 009 6 gusting 11 23.9
2016-Jul-25 00:57 029 5 gusting 11 24.4
2016-Jul-25 00:42 041 5 gusting 10 25.0
2016-Jul-25 00:27 088 5 gusting 11 25.0
2016-Jul-25 00:12 042 6 gusting 15 25.6
2016-Jul-24 23:56 053 5 gusting 9 25.6
2016-Jul-24 23:42 049 5 gusting 10 26.1
2016-Jul-24 23:26 066 5 gusting 14 26.1
2016-Jul-24 23:11 016 6 gusting 13 26.7
2016-Jul-24 22:56 071 2 gusting 7 27.2
2016-Jul-24 22:41 031 3 gusting 6 27.2
2016-Jul-24 22:26 068 2 gusting 9 27.8
2016-Jul-24 22:11 049 4 gusting 10 27.8
2016-Jul-24 21:56 049 4 gusting 11 28.3
2016-Jul-24 21:41 041 3 gusting 9 28.9
2016-Jul-24 21:26 061 2 gusting 9 28.9
2016-Jul-24 21:11 058 1 gusting 3 29.4
2016-Jul-24 20:56 065 29.4
2016-Jul-24 20:41 065 0 gusting 2 29.4
2016-Jul-24 20:26 065 30.0
2016-Jul-24 20:11 065 30.6
2016-Jul-24 19:56 066 30.6
2016-Jul-24 19:41 065 30.6
2016-Jul-24 19:26 066 31.1
2016-Jul-24 19:11 065 0 gusting 3 31.1
2016-Jul-24 18:56 077 0 gusting 3 31.7
2016-Jul-24 18:41 066 32.2
2016-Jul-24 18:26 243 33.3
2016-Jul-24 18:11 243 32.8
2016-Jul-24 17:56 105 0 gusting 3 32.8
2016-Jul-24 17:41 079 2 gusting 6 32.2
2016-Jul-24 17:26 074 0 gusting 4 32.8
2016-Jul-24 17:11 079 0 gusting 6 32.2
2016-Jul-24 16:56 075 3 gusting 8 33.3
2016-Jul-24 16:41 071 33.9
2016-Jul-24 16:26 051 0 gusting 2 33.3
2016-Jul-24 16:11 084 2 gusting 6 32.8
2016-Jul-24 15:56 275 0 gusting 6 32.8
2016-Jul-24 15:41 028 33.3
2016-Jul-24 15:26 030 0 gusting 6 33.3
2016-Jul-24 15:11 264 33.9
2016-Jul-24 14:56 302 0 gusting 4 33.3
2016-Jul-24 14:41 254 0 gusting 4 32.8
2016-Jul-24 14:26 080 2 gusting 7 32.2
2016-Jul-24 14:11 284 2 gusting 6 32.8
2016-Jul-24 13:56 273 1 gusting 6 32.2
2016-Jul-24 13:41 068 0 gusting 4 32.2
2016-Jul-24 13:25 049 0 gusting 5 32.2
2016-Jul-24 13:10 158 1 gusting 6 31.1
2016-Jul-24 12:55 070 0 gusting 3 31.7
2016-Jul-24 12:40 065 0 gusting 6 30.6
2016-Jul-24 12:25 016 31.1
2016-Jul-24 12:10 120 0 gusting 6 29.4
2016-Jul-24 11:55 083 2 gusting 5 30.0
2016-Jul-24 11:40 136 0 gusting 2 29.4
2016-Jul-24 11:25 062 2 gusting 6 28.9
2016-Jul-24 11:10 259 1 gusting 4 28.9
2016-Jul-24 10:55 039 27.8
2016-Jul-24 10:40 063 0 gusting 3 28.3
2016-Jul-24 10:25 049 4 gusting 6 27.2
2016-Jul-24 10:10 069 0 gusting 4 26.7